Voltar ao catálogo

STARLINK-36992

AtivoComunicaçõesSSO
NORAD 68149·PAYLOAD·🇺🇸 United States

Lançado Mar 13, 2026 de Vandenberg Space Force Base

Loading…

Próximas Passagens (próximas 24 horas)

TLE

AtualizadoSource: CelesTrak SupGP

Época: Sep 15, 2026, 04:07 UTC

1 68149C 26049H   26258.17201389 -.00069309  00000+0 -21519-2 0  2589
2 68149  97.2838 278.2628 0001407  88.6558  78.5115 15.33468637    18

Acompanhe STARLINK-36992 em tempo real com AllMySat

Download on the App Store